Big Piney, WY

4:20 AM MST on January 24, 2017 (GMT -0700)
Big Piney-Marbleton

Weather History for KBPI - January, 2014

Change the Weather History Date:

Tuesday, January 14, 2014

  Actual Average Record
Temperature  
Mean Temperature 27 °F 11 °F  
Max Temperature 34 °F 26 °F 47 °F (2012)
Min Temperature 19 °F -4 °F -31 °F (2013)
Degree Days  
Heating Degree Days 38 54  
Month to date heating degree days 684 756  
Since 1 July heating degree days 4803 5195  
Cooling Degree Days 0 0  
Month to date cooling degree days 0 0  
Year to date cooling degree days 0 0  
Moisture  
Dew Point 17 °F    
Average Humidity 63    
Maximum Humidity 74    
Minimum Humidity 51    
Precipitation  
Precipitation 0.00 in 0.01 in 0.32 in (1988)
Month to date precipitation T 0.15  
Year to date precipitation T 0.15  
Sea Level Pressure  
Sea Level Pressure 30.43 in    
Wind  
Wind Speed 18 mph (NNW)    
Max Wind Speed 32 mph    
Max Gust Speed 42 mph    
Visibility 10 miles    
Events      
T = Trace of Precipitation, MM = Missing Value Source: NWS Daily Summary

Daily Weather History Graph

Daily Weather History Graph

Search for Another Location

Airport or City:

Trip Planner

Search our weather history database for the weather conditions in past years. The results will help you decide how hot, cold, wet, or windy it might be!

Date:

Astronomy

Jan. 14, 2014 Rise Set
Actual Time 7:48 AM MST 5:11 PM MST
Civil Twilight 7:16 AM MST 5:42 PM MST
Nautical Twilight 6:41 AM MST 6:17 PM MST
Astronomical Twilight 6:08 AM MST 6:51 PM MST
Moon 4:20 PM MST (1/14) 6:24 AM MST (1/14)
Length of Visible Light 10h 25m
Length of Day
9h 23m
Waxing Gibbous, 98% of the Moon is Illuminated
Jan 14
Waxing Gibbous
Jan 15
Full
Jan 23
Last Quarter
Jan 30
New
Feb 6
First Quarter

Hourly Weather History & Observations

Time (MST) Temp. Windchill Dew Point Humidity Pressure Visibility Wind Dir Wind Speed Gust Speed Precip Events Conditions
12:53 AM 23.0 °F 9.2 °F 16.0 °F 74% 30.30 in 10.0 mi NNW 17.3 mph - N/A   Clear
1:53 AM 24.1 °F 9.8 °F 15.1 °F 69% 30.30 in 10.0 mi NW 19.6 mph - N/A   Clear
2:53 AM 25.0 °F 12.6 °F 15.1 °F 66% 30.31 in 10.0 mi NW 15.0 mph - N/A   Clear
3:53 AM 28.0 °F 12.5 °F 16.0 °F 61% 30.32 in 10.0 mi NNW 28.8 mph 36.8 mph N/A   Clear
4:53 AM 26.1 °F 12.0 °F 15.1 °F 63% 30.33 in 10.0 mi NNW 20.7 mph - N/A   Clear
5:53 AM 26.1 °F 12.0 °F 16.0 °F 66% 30.37 in 10.0 mi NNW 20.7 mph 29.9 mph N/A   Clear
6:53 AM 26.1 °F 11.6 °F 15.1 °F 63% 30.40 in 10.0 mi NNW 21.9 mph - N/A   Clear
7:53 AM 26.1 °F 11.3 °F 16.0 °F 66% 30.40 in 10.0 mi NNW 23.0 mph 28.8 mph N/A   Clear
8:53 AM 28.0 °F 15.7 °F 16.0 °F 61% 30.43 in 10.0 mi North 17.3 mph - N/A   Clear
9:53 AM 30.0 °F 21.1 °F 17.1 °F 59% 30.44 in 10.0 mi North 10.4 mph - N/A   Clear
10:53 AM 32.0 °F 20.5 °F 18.0 °F 56% 30.47 in 10.0 mi North 18.4 mph - N/A   Clear
11:53 AM 33.1 °F 21.9 °F 19.0 °F 56% 30.48 in 10.0 mi NNW 18.4 mph 25.3 mph N/A   Clear
12:53 PM 34.0 °F 22.7 °F 19.9 °F 56% 30.45 in 10.0 mi NNW 19.6 mph - N/A   Clear
1:53 PM 34.0 °F 22.7 °F 19.9 °F 56% 30.44 in 10.0 mi NNW 19.6 mph 24.2 mph N/A   Clear
2:53 PM 34.0 °F 25.0 °F 19.9 °F 56% 30.43 in 10.0 mi North 12.7 mph - N/A   Clear
3:53 PM 33.1 °F 20.3 °F 18.0 °F 54% 30.42 in 10.0 mi North 24.2 mph - N/A   Clear
4:53 PM 30.9 °F 18.1 °F 18.0 °F 59% 30.46 in 10.0 mi NNW 21.9 mph - N/A   Clear
5:53 PM 26.1 °F 13.6 °F 16.0 °F 66% 30.51 in 10.0 mi NNW 16.1 mph - N/A   Clear
6:53 PM 23.0 °F 11.1 °F 14.0 °F 68% 30.52 in 10.0 mi NW 12.7 mph - N/A   Clear
7:53 PM 21.9 °F 14.5 °F 12.9 °F 68% 30.54 in 10.0 mi NNE 5.8 mph - N/A   Clear
8:53 PM 21.0 °F 10.6 °F 12.9 °F 71% 30.51 in 10.0 mi NW 9.2 mph - N/A   Clear
9:53 PM 26.1 °F 12.7 °F 17.1 °F 69% 30.48 in 10.0 mi NNW 18.4 mph - N/A   Clear
10:53 PM 26.1 °F 12.0 °F 17.1 °F 69% 30.46 in 10.0 mi NNW 20.7 mph - N/A   Clear
11:53 PM 25.0 °F 10.9 °F 16.0 °F 69% 30.44 in 10.0 mi North 19.6 mph - N/A   Clear